Flag Weather past 2 weeks in San Jose, California, U.S.A.

Now
61 °F

Partly sunny.


Feels Like: 61 °F
Forecast: 55 / 64 °F
Wind: 8 mph from Southeast

Location: San Jose International Airport

Current Time: Oct 31, 2014 at 9:32:42 AM

Latest Report: Oct 31, 2014 at 8:53 AM


Visibility: 10 mi

Pressure: 29.88 "Hg

Humidity: 78%

Dew point: 54 °F

Location of San JoseLocation

Historic Weather in San Jose — Graph

°F

San Jose temperature yesterday

Maximum temperature yesterday: 81 °F (at 1:53 PM)
Minimum temperature yesterday: 56 °F (at 5:53 AM)
Average temperature yesterday: 64 °F

Past Weeks' High & Low Weather Summary

 TemperatureHumidityPressure
High81 °F (Oct 30, 1:53 PM)100% (Oct 19, 7:53 AM)30.17 "Hg (Oct 19, 7:53 AM)
Low46 °F (Oct 27, 5:53 AM)20% (Oct 30, 1:53 PM)29.84 "Hg (Oct 19, 3:53 PM)
Average62 °F69%30.00 "Hg
* Reported Oct 16 7:53 AM — Oct 31 7:53 AM, San Jose, Weather by CustomWeather, © 2014

Note: Actual official high and low records may vary slightly from our data, if they occured in-between our weather recording intervals... More about our weather records

Advertising

San Jose weather history for previous 24 hours

 ConditionsComfort  
Time TempWeatherWind HumidityBarometerVisibility
7:53 AM
Oct 31
60 °FPartly cloudy.5 mph80%29.87 "Hg10 mi
6:53 AM60 °FPartly cloudy.9 mph80%29.87 "Hg10 mi
5:53 AM60 °FPassing clouds.12 mph78%29.84 "Hg10 mi
4:53 AM60 °FPassing clouds.3 mph80%29.87 "Hg10 mi
3:53 AM60 °FClear.5 mph80%29.89 "Hg10 mi
2:53 AM60 °FOvercast.3 mph83%29.90 "Hg10 mi
1:53 AM59 °FMostly cloudy.7 mph90%29.91 "Hg9 mi
12:53 AM61 °FOvercast.7 mph75%29.92 "Hg10 mi
11:53 PM
Oct 30
60 °FPartly cloudy.12 mph78%29.91 "Hg10 mi
10:53 PM60 °FPassing clouds.9 mph75%29.91 "Hg10 mi
9:53 PM62 °FPartly cloudy.5 mph67%29.90 "Hg10 mi
8:53 PM63 °FPartly cloudy.5 mph63%29.89 "Hg10 mi
7:53 PM63 °FPartly cloudy.5 mph73%29.89 "Hg10 mi
6:53 PM66 °FBroken clouds.6 mph63%29.88 "Hg10 mi
5:53 PM70 °FBroken clouds.10 mph38%29.86 "Hg10 mi
4:53 PM71 °FBroken clouds.9 mph38%29.87 "Hg10 mi
3:53 PM72 °FBroken clouds.13 mph35%29.88 "Hg10 mi
2:53 PM73 °FBroken clouds.14 mph43%29.88 "Hg10 mi
1:53 PM81 °FBroken clouds.12 mph20%29.87 "Hg10 mi
12:53 PM78 °FBroken clouds.5 mph28%29.89 "Hg10 mi
11:53 AM70 °FBroken clouds.No wind44%29.93 "Hg10 mi
10:53 AM66 °FBroken clouds.3 mph54%29.93 "Hg10 mi
9:53 AM62 °FBroken clouds.3 mph60%29.94 "Hg10 mi
Weather by CustomWeather, © 2014

See weather overviewHow to use our weather pages